Regional Weather Roundup
Issued by NWS State College, PA

Home | Current Version | Previous Version | Text Only | Print | Product List | Glossary Off
Versions: 1 2 3 4 5 6 7 8 9 10 11 12 13 14 15 16 17 18 19 20 21 22 23 24 25 26 27 28 29 30 31 32 33 34 35 36 37 38 39 40 41 42 43 44 45 46 47 48 49 50

000
ASUS41 KCTP 220510
RWRCTP

REGIONAL WEATHER ROUNDUP
NATIONAL WEATHER SERVICE STATE COLLEGE PA
100 AM EDT FRI AUG 22 2014

Note: "fair" indicates few or no clouds below 12,000 feet with no
significant weather and/or obstructions to visibility.

* = STATION THAT DOES NOT REPORT PRECIPITATION /E.G. RAIN...SNOW...ETC/
    THUNDER OR FOG.

PAZ002>004-007>009-013>016-020>023-029>032-220600-
WESTERN PENNSYLVANIA

CITY           SKY/WX    TMP DP  RH WIND       PRES   REMARKS
ERIE           MOCLDY    73  68  84 CALM      29.99F
MEADVILLE      MOCLDY    68  66  93 S6        30.03S
FRANKLIN*      PTCLDY    66  64  94 SW7       30.05S
NEW CASTLE     NOT AVBL
BEAVER COUNTY  NOT AVBL
BUTLER*        CLOUDY    68  64  88 SW3       30.07S
PITTSBURGH INT CLOUDY    69  67  93 SW5       30.04F
PITTSBURGH     CLOUDY    68  64  88 S6        30.04F FOG
INDIANA*       CLOUDY    70  68  94 SW5       30.10S
LATROBE        PTCLDY    70  70 100 S7        30.06F
WASHINGTON CO* CLOUDY    66  64  94 CALM      30.06F
$$

PAZ004>006-010>012-017>019-024>028-033>037-041-042-045-046-049>053-220600-
CENTRAL PENNSYLVANIA

CITY           SKY/WX    TMP DP  RH WIND       PRES   REMARKS
BRADFORD       LGT RAIN  66  65  96 CALM      30.06S FOG
DUBOIS         LGT RAIN  68  66  93 SW14      30.05F FOG
CLEARFIELD     CLOUDY    66  66 100 SW6       30.05S FOG
JOHNSTOWN      CLOUDY    67  63  87 SW5       30.09S
ALTOONA        MOCLDY    67  65  93 SW3       30.06S
STATE COLLEGE  CLOUDY    65  64  99 SW3       30.03F FOG
WILLIAMSPORT   MOCLDY    68  66  93 CALM      29.98S
SELINSGROVE    FOG       68  66  93 CALM      30.00F VSB 3/4
FT INDIANTOWN  MOCLDY    67  67 100 CALM      30.00F
CAPITAL CITY   PTCLDY    66  65  96 SW3       29.99F FOG
HARRISBURG     PTCLDY    69  66  90 CALM      29.98F
YORK           PTCLDY    63  62  97 CALM      30.00S FOG
$$

PAZ038>040-043-044-047-048-054-055-060>062-067>071-220600-
EASTERN PENNSYLVANIA

CITY           SKY/WX    TMP DP  RH WIND       PRES   REMARKS
SCRANTON       HVY RAIN  70  64  83 VRB3      30.01S FOG
MOUNT POCONO   RAIN      63  61  93 SE5       30.05S
ALLENTOWN      LGT RAIN  68  64  88 E10       30.02S
QUAKERTOWN*    CLOUDY    66  64  94 MISG      30.03S
READING        CLOUDY    74  70  87 CALM      29.98S
LANCASTER      CLOUDY    72  69  90 SW3       29.99S
COATESVILLE    CLOUDY    72  72 100 CALM      30.01S FOG
POTTSTOWN      CLOUDY    72  68  87 NE5       30.01S
BLUE BELL      CLOUDY    72  68  88 NE6       29.99S
DOYLESTOWN     LGT RAIN  66  66 100 NE6       30.01F
WILLOW GROVE   NOT AVBL
NORTH PHILA    LGT RAIN  71  65  81 NE12      30.01S
PHILADELPHIA   CLOUDY    73  67  81 SE6       29.99F
$$



USA.gov is the U.S. government's official web portal to all federal, state and local government web resources and services.